Location: Newark
(45.6000°N, 12.8833°E)
Time: 06:24:29
(UTC+00:00)

Transit 2A - Visible Passes

Search period start: 20 November 2019 00:00
Search period end: 30 November 2019 00:00
Orbit: 601 x 957 km, 66.7° (Epoch: 18 November)

Date Brightness Start Highest point End Pass type
(mag) Time Alt. Az. Time Alt. Az. Time Alt. Az.
21 Nov 8.0 17:48:22 10° N 17:48:39 11° N 17:48:39 11° N visible
22 Nov 7.7 17:14:47 10° N 17:15:34 12° NNE 17:15:34 12° NNE visible
23 Nov 7.7 16:42:07 10° NNE 16:42:27 10° NNE 16:42:32 10° NNE visible
23 Nov 8.0 18:22:25 10° NNW 18:23:01 14° NNW 18:23:01 14° NNW visible
24 Nov 7.3 17:48:27 10° NNW 17:50:05 20° N 17:50:05 20° N visible
25 Nov 6.9 17:14:33 10° NNW 17:17:14 23° NNE 17:17:14 23° NNE visible
25 Nov 8.4 18:57:18 10° NW 18:57:45 13° NW 18:57:45 13° NW visible
26 Nov 7.0 16:40:46 10° N 16:43:51 18° NE 16:44:31 18° NE visible
26 Nov 7.3 18:23:04 10° NW 18:25:03 26° NW 18:25:03 26° NW visible
27 Nov 7.3 16:07:08 10° N 16:09:28 14° NE 16:11:49 10° ENE visible
27 Nov 5.8 17:48:56 10° NNW 17:52:32 59° NNW 17:52:32 59° NNW visible
28 Nov 5.6 17:14:52 10° NNW 17:19:09 53° NE 17:20:18 41° ESE visible
28 Nov 8.3 18:58:53 10° WNW 19:00:53 17° W 19:00:53 17° W visible
29 Nov 6.1 16:40:53 10° NNW 16:44:57 37° NE 16:48:34 13° ESE visible
29 Nov 7.5 18:24:13 10° NW 18:27:57 27° WSW 18:29:11 24° SW visible
